Back to catalog

COSMOS 1086

AliveMilitaryLEO
NORAD 11301·PAYLOAD·🇷🇺 Russia

Launched Mar 15, 1979 from Plesetsk Cosmodrome

Loading…

Next Passes (next 24 hours)

TLE

FreshSource: Space-Track

Epoch: Sep 14, 2026, 14:29 UTC

1 11301U 79024F   26257.60404300 -.00000003  00000-0  83704-4 0  9997
2 11301  74.0346 310.2218 0010985 223.3067 291.2641 12.47884691163808

Track COSMOS 1086 in real time with AllMySat

Download on the App Store